Location: Baia Mare
(47.6567°N, 23.5850°E)
Time: 00:31:42
(UTC+03:00)

ISS - Pass Details

Date: 21 July 2018
Orbit: 402 x 408 km, 51.6° (Epoch: 16 July)

Event Time Altitude Azimuth Distance (km) Brightness Sun altitude
Rises 22:18:19 0° 226° (SW) 2,310 0.0 -9.3°
Reaches altitude 10° 22:20:26 10° 219° (SW) 1,454 -1.1 -9.6°
Maximum altitude 22:23:33 42° 147° (SSE) 591 -3.5 -9.9°
Drops below altitude 10° 22:26:40 10° 75° (ENE) 1,465 -1.3 -10.3°
Sets 22:28:49 0° 68° (ENE) 2,329 -0.2 -10.5°
